COSMOS 1937

Satellite information

Favourite Embed

Satellite Type and Status

PAYLOADIN ORBIT

Key statistics

Satellite COSMOS 1937 at a glance.

Uptime

13545

Days in orbit

Revolutions

≈ 14.4

Per day

Orbit

LEO

Low Earth Orbit

Inclination

74.0

Latest

Satellite identification and parameters

Extended collection of information and parameters for COSMOS 1937.

Object identification

Identified? True

Debris? False

Object name: COSMOS 1937

International designator: 1988-029A

Object number (NORAD): 19038

Object ID (CCSDS): 19038

Country: COMMONWEALTH OF INDEPENDENT STATES (CIS)

Current information (Y/N): Y

RCS size: LARGE

Orbital parameters

Period: 100.279 minutes

Inclination: 74.0435 deg

SMA: 7149.923 km

Apoapsis: 789.54 km

Periapsis: 754.036 km

RAAN: 132.1451 deg

Eccentricy: 0.0024828

Argument of periapsis: 316.1092 deg

Mean anomaly: 216.799 deg

Mean motion: 14.35987643 rev/day

Mean motion (dot): 0.00000216 rev/day2

B* drag term: 0.000083193 1/REarth

Two-line elements (TLE)

Creation date: May 6, 2025, 3:54 a.m.

Reference frame: TEME

Reference center: EARTH

Epoch: May 5, 2025, 7:12 p.m. UTC

TLE line 0: 0 COSMOS 1937

TLE line 1: 1 19038U 88029A 25125.80021275 .00000216 00000-0 83193-4 0 9995

TLE line 2: 2 19038 74.0435 132.1451 0024828 316.1092 216.7990 14.35987643941265

Live tracking on map

Real-time ground track for satellite COSMOS 1937.

In-orbit conjunctions

A list of the most updated potential collisions computed for object COSMOS 1937.

Target Orbit TCA Probability of collision Miss distance Type
DMSP 5D-2 F13 DEB SSO 2025-02-13 17:27:22 0.0003089315 730.0 (m) DEBRIS
CZ-6A DEB SSO 2024-11-21 17:42:51 0.0001253419 603.0 (m) DEBRIS
COSMOS 2251 DEB LEO 2024-10-30 15:01:09 0.0001973262 301.0 (m) DEBRIS
CZ-6A DEB SSO 2024-10-25 15:06:08 0.0001658518 612.0 (m) DEBRIS
IRIDIUM 47 DEB LEO 2024-09-27 18:14:45 0.004421844 66.0 (m) DEBRIS

Associated space launch

Military communications satellite

COSMOS 1937 was lifted into orbit during the mission ‘Kosmos-3M | Strela-2M 44’, on board a Kosmos-3M space rocket.

The launch took place on April 5, 1988, 2:41 p.m. from 133/3 (133L).

For more information about the launch, click the button.

Launch to space Kosmos-3M | Strela-2M 44
Kosmos-3M | Strela-2M 44

Agency: N/A

Status: Launch Successful

Launch date: April 5, 1988, 2:41 p.m. UTC

Rocket: Kosmos-3M

Launch pad: 133/3 (133L)

Location: Plesetsk Cosmodrome, Russian Federation

...

Latest news about this satellite

There are no fresh news available about this satellite. Check back as we update our databases every day.


Newsletter sign-up

Weekly statistics, charts and insights to help you stay on top of the space industry.